Regional Weather Roundup
Issued by NWS Kansas City/Pleasant Hill, MO

Home | Current Version | Previous Version | Text Only | Print | Product List | Glossary On
Versions: 1 2 3 4 5 6 7 8 9 10 11 12 13 14 15 16 17 18 19 20 21 22 23 24 25 26 27 28 29 30 31 32 33 34 35 36 37 38 39 40 41 42 43 44 45 46 47 48 49 50
000
ASUS43 KEAX 212010
RWREAX

WEATHER ROUNDUP FOR EASTERN KANSAS AND NORTHWEST MISSOURI
NATIONAL WEATHER SERVICE KANSAS CITY/PLEASANT HILL MO
300 PM CDT SAT APR 21 2018

KSZ040-057-103>105-MOZ028-029-037-043-212100-
...KANSAS CITY METROPOLITAN AREA...

CITY           SKY/WX    TMP DP  RH WIND       PRES   REMARKS
K.C. INTL      CLOUDY    64  33  31 E12       30.16F
K.C. DOWNTOWN  CLOUDY    64  33  31 E9        30.15F
LEES SUMMIT    CLOUDY    64  34  32 E10       30.14F
OLATHE - IXD   PTSUNNY   60  35  39 NE9       30.14F
OLATHE - OJC   CLOUDY    60  35  39 NE8       30.13F
LAWRENCE       CLOUDY    55  36  48 N8        30.16F

$$

MOZ001>008-011>017-020>025-030>033-038>040-044>046-053-054-212100-
...NORTHERN AND CENTRAL MISSOURI...

CITY           SKY/WX    TMP DP  RH WIND       PRES   REMARKS
ST. JOSEPH     PTSUNNY   60  32  34 E7G17     30.19F
MOSBY          CLOUDY    63  30  29 E10       30.15F
WARRENSBURG    PTSUNNY   68  32  26 NE10G17   30.13F
WHITEMAN AFB   PTSUNNY   66  34  30 E12       30.10F
CLINTON        CLOUDY    68  34  28 E14       30.12F
SEDALIA        CLOUDY    65  34  31 E14       30.16F
WARSAW         NOT AVBL
CHILLICOTHE      N/A     63  31  30 E9        30.21F
KIRKSVILLE     CLOUDY    59  30  33 E13       30.24F

$$

MOZ041-047>049-056>058-063>065-088>090-097-212100-
...EASTERN AND SOUTHERN MISSOURI...

CITY           SKY/WX    TMP DP  RH WIND       PRES   REMARKS
ST. LOUIS INTL PTSUNNY   66  31  27 E18G25    30.20F
SPIRIT OF STL  CLOUDY    66  31  27 E17G26    30.18F
COLUMBIA       CLOUDY    65  29  25 E10       30.19S
JEFFERSON CITY CLOUDY    66  28  24 E10       30.18S
ROLLA          CLOUDY    68  31  25 E15G22    30.15F
OSAGE BEACH    CLOUDY    69  33  26 S7        30.13F
SPRINGFIELD    PTSUNNY   67  37  33 SE15      30.08F
BRANSON        CLOUDY    66  39  37 SE13G22   30.08F
JOPLIN         CLOUDY    63  41  44 SE8G17    30.09F
WEST PLAINS    MOSUNNY   69  33  26 SE10G22   30.12F

$$

IAZ060-094-KSZ022-034>040-054-083-096-NEZ052-066-093-212100-
...KANSAS...SOUTHEAST NEBRASKA AND IOWA...

CITY           SKY/WX    TMP DP  RH WIND       PRES   REMARKS
TOPEKA         CLOUDY    50  43  77 N12       30.18F
MANHATTAN      LGT RAIN  47  44  90 NE9       30.18F
EMPORIA        CLOUDY    48  41  76 NE13      30.15F
CHANUTE        CLOUDY    59  40  49 E6        30.10F
WICHITA        LGT RAIN  47  45  93 NE14      30.13R FOG
OMAHA          CLOUDY    54  31  41 NW5       30.25F
LINCOLN        CLOUDY    52  33  48 E12       30.26F
FALLS CITY     CLOUDY    49  41  74 N10       30.21S
LAMONI         CLOUDY    55  26  32 E9        30.22F
DES MOINES     CLOUDY    57  27  31 E10       30.28F

$$




USA.gov is the U.S. government's official web portal to all federal, state and local government web resources and services.